This is the latest recevied weather packets stored in our database for station/object KF4CQ. If no packets are shown the sender has not sent any weather packets the latest 10 day(s).
| Time | Temp. | Humidity | Pressure | Rain* | Wind** | Luminosity | Snow |
|---|---|---|---|---|---|---|---|
| 1777469816 | 23.89° C | 87% | 1019.3 hPa | 0 mm | - | 298 W/m² | - |
| 1777469512 | 23.89° C | 87% | 1019.4 hPa | 0 mm | - | 257 W/m² | - |
| 1777469207 | 23.33° C | 89% | 1019.4 hPa | 0 mm | - | 245 W/m² | - |
| 1777468901 | 23.33° C | 89% | 1019.5 hPa | 0 mm | - | 137 W/m² | - |
| 1777468598 | 23.33° C | 90% | 1019.6 hPa | 0 mm | - | 233 W/m² | - |
| 1777468295 | 23.33° C | 88% | 1019.5 hPa | 0 mm | - | 242 W/m² | - |
| 1777467991 | 22.78° C | 91% | 1019.2 hPa | 0 mm | - | 190 W/m² | - |
| 1777467687 | 22.78° C | 92% | 1019.6 hPa | 0 mm | - | 191 W/m² | - |
| 1777467382 | 21.67° C | 94% | 1019.6 hPa | 0 mm | - | 171 W/m² | - |
| 1777467078 | 21.67° C | 95% | 1019.4 hPa | 0 mm | - | 154 W/m² | - |
| 1777466776 | 20.56° C | 96% | 1019.1 hPa | 0 mm | - | 138 W/m² | - |
| 1777466473 | 20.56° C | 97% | 1019 hPa | 0 mm | - | 47 W/m² | - |
| 1777466170 | 20.56° C | 98% | 1019 hPa | 0 mm | - | 61 W/m² | - |
| 1777465866 | 20° C | 99% | 1019.3 hPa | 0 mm | - | 83 W/m² | - |
| 1777465562 | 19.44° C | 99% | 1019.3 hPa | 0 mm | - | 67 W/m² | - |
| 1777465256 | 19.44° C | 99% | 1019.2 hPa | 0 mm | - | 67 W/m² | - |
| 1777464952 | 18.89° C | 99% | 1019.3 hPa | 0 mm | - | 64 W/m² | - |
| 1777464647 | 18.89° C | 99% | 1019 hPa | 0 mm | - | 53 W/m² | - |
| 1777464343 | 18.89° C | 99% | 1018.9 hPa | 0 mm | - | 57 W/m² | - |
| 1777464039 | 18.89° C | 99% | 1018.9 hPa | 0 mm | - | 62 W/m² | - |
| 1777463734 | 18.33° C | 99% | 1018.7 hPa | 0 mm | - | 57 W/m² | - |
| 1777463429 | 18.33° C | 99% | 1018.2 hPa | 0 mm | - | 48 W/m² | - |
| 1777463125 | 18.33° C | 99% | 1018.2 hPa | 0 mm | - | 41 W/m² | - |
| 1777462821 | 17.78° C | 99% | 1018.1 hPa | 0 mm | - | 31 W/m² | - |
| 1777462516 | 17.78° C | 99% | 1018.1 hPa | 0 mm | - | 22 W/m² | - |
* Rain latest hour (hover to see other rain measurements)
** Current wind speed in m/s (hover to see current wind gust speed)